Location: Newark
(35.8967°N, 14.4625°E)
Time: 08:04:34
(UTC+00:00)

Envisat - Pass Details

Date: 26 October 2019
Orbit: 764 x 766 km, 98.1° (Epoch: 20 November)

Event Time Altitude Azimuth Distance (km) Brightness Sun altitude
Rises 17:03:31 0° 163° (SSE) 3,217 6.1 -10.8°
Reaches altitude 10° 17:05:49 10° 163° (SSE) 2,295 5.4 -11.2°
Maximum altitude 17:10:52 81° 77° (ENE) 779 2.9 -12.3°
Drops below altitude 10° 17:15:58 10° 350° (N) 2,309 5.5 -13.3°
Sets 17:18:17 0° 349° (N) 3,238 6.3 -13.7°
